Regional Weather Roundup
Issued by NWS Cleveland, OH

Home | Current Version | Previous Version | Graphics & Text | Print | Product List | Glossary On
Versions: 1 2 3 4 5 6 7 8 9 10 11 12 13 14 15 16 17 18 19 20 21 22 23 24 25 26 27 28 29 30 31 32 33 34 35 36 37 38 39 40 41 42 43 44 45 46 47 48 49 50
000
ASUS41 KCLE 030200
RWRCLE
OHIO REGIONAL WEATHER ROUNDUP
NATIONAL WEATHER SERVICE WILMINGTON, OH
1000 PM EDT TUE JUN 02 2015

NOTE: "FAIR" INDICATES FEW OR NO CLOUDS BELOW 12,000 FEET WITH NO
SIGNIFICANT WEATHER AND/OR OBSTRUCTIONS TO VISIBILITY.

OHZ001>008-015>018-024>027-034-035-043-044-030300-
   NORTHWEST OHIO

CITY           SKY/WX    TMP DP  RH WIND       PRES   REMARKS
DEFIANCE       CLEAR     57  46  66 NE3       30.14R
FINDLAY        CLEAR     59  46  62 NE10      30.12R
TOLEDO EXPRESS CLEAR     53  44  71 E3        30.14R
TOLEDO EXEC    CLEAR     57  47  69 NE7       30.15R
LIMA           CLEAR     58  49  72 NE7       30.12R
$$

OHZ009>014-019>023-028>033-038-089-030300-
   NORTHEAST OHIO

CITY           SKY/WX    TMP DP  RH WIND       PRES   REMARKS
CLE-HOPKINS    PTCLDY    57  51  80 N5        30.14R
CLE-LAKEFRONT  CLEAR     60  49  66 NE10      30.12R
CUY CO. ARPT   PTCLDY    57 N/A N/A E8        30.14R
LORAIN-ELYRIA  CLEAR     56  50  80 NE7       30.13R
ASHTABULA      CLEAR     55  46  71 CALM      30.16R
AKRON-CANTON   PTCLDY    59  51  75 CALM      30.12R
WOOSTER        NOT AVBL
MANSFIELD      MOCLDY    58  53  84 SE3       30.13R
YOUNGSTOWN     PTCLDY    58  52  80 NE6       30.13R
$$

OHZ042-051>053-060>062-070>072-077>081-030300-
  SOUTHWEST OHIO

CITY           SKY/WX    TMP DP  RH WIND       PRES   REMARKS
CINC-COVINGTON CLOUDY    61  52  72 CALM      30.10S
CINC-LUNKEN    CLOUDY    59  56  89 CALM      30.10S
HAMILTON       CLOUDY    60  55  83 CALM      30.11R
DAYTON         NOT AVBL
WRIGHT-PAT AFB CLEAR     57  54  90 CALM      30.09S
DAYTON GENERAL MOCLDY    59  53  80 CALM      30.09S
WILMINGTON     PTCLDY    58  52  80 SE5       30.10R
$$

OHZ036-037-039>041-045>050-054>059-063>069-073>076-082>088-030300-
  CENTRAL AND SOUTHEAST OHIO

CITY           SKY/WX    TMP DP  RH WIND       PRES   REMARKS
COLUMBUS       PTCLDY    58  52  80 E3        30.11R
OSU AIRPORT    CLEAR     57  51  80 E7        30.11R
BOLTON FIELD   NOT AVBL
RICKENBACK AFB NOT AVBL
NEWARK         CLOUDY    60  52  74 CALM      30.11S
MARION         MOCLDY    60  52  74 NE7       30.12R
LANCASTER      CLOUDY    60  52  74 E5        30.11F
ZANESVILLE     CLOUDY    60  52  74 CALM      30.11R
NEW PHILLY     PTCLDY    60  53  77 CALM      30.12S
$$



USA.gov is the U.S. government's official web portal to all federal, state and local government web resources and services.